Wind_Speed
7 7 9 9 9 10 8 4 2 2 3 4 0 4 3 4 2 3 5 2 1 4 4 5 6 5 3 2 5 11 9 7 4 1 2 6 13 12 12 20 21 17 15 14 14 12 12 10 9 10 9 11 11 11 13 14 15 15 16 16 14 14 14 14 14 14 15 15 15 15 15 15 15 15 15 15 15 15 16 16 16 15 16 17 17 18 18 18 18 18 18 18 19 19 20 20 20
7 7 10 9 8 6 4 1 2 3 4 3 3 5 4 3 1 3 6 5 5 4 3 5 5 3 2 1 2 8 10 10 7 4 6 14 16 12 15 18 19 18 15 14 13 11 11 10 9 10 9 10 10 12 13 14 15 15 15 15 15 15 14 14 14 15 15 15 15 16 16 15 15 14 15 15 15 14 16 16 15 15 15 15 16 16 16 18 18 18 17 17 18 19 20 20 21
6 6 8 9 7 4 3 2 2 4 4 1 5 2 4 4 3 8 9 9 7 5 5 5 3 2 2 2 4 7 7 8 10 7 8 15 13 11 16 16 17 17 16 15 12 10 10 9 9 10 10 9 11 12 13 13 14 15 16 15 14 14 13 13 14 15 15 15 15 16 15 15 14 14 15 15 15 15 15 15 14 15 15 14 14 15 15 16 17 16 17 17 18 19 19 20 20
6 4 6 7 4 3 2 2 3 4 4 2 4 1 2 5 8 10 8 8 6 4 4 2 2 2 3 4 5 7 7 6 9 7 6 12 13 14 16 15 15 15 16 17 14 12 9 9 9 10 11 10 12 13 12 12 12 14 15 15 14 13 12 12 13 15 14 14 15 14 15 14 14 14 14 14 14 14 14 14 14 15 14 13 14 14 16 16 15 15 16 17 17 18 19 20 20
6 5 6 5 2 1 2 2 3 3 3 2 4 2 2 7 10 8 7 7 4 4 2 1 1 1 2 5 3 3 4 5 9 10 8 12 18 17 15 15 14 14 15 16 15 11 9 10 10 12 12 12 13 13 13 12 12 13 13 14 14 12 11 12 12 13 13 13 14 14 14 14 13 13 13 13 13 13 13 13 13 14 13 13 14 14 15 14 14 14 15 16 17 17 18 18 19
7 7 7 4 1 1 1 3 4 2 3 4 4 2 3 8 10 8 8 6 4 5 3 1 1 2 3 5 6 5 3 3 8 11 13 15 18 17 15 14 13 14 13 14 13 9 10 12 12 13 14 14 14 14 14 12 11 11 12 13 13 11 11 12 12 13 13 13 13 13 14 14 13 13 13 13 13 13 12 11 11 13 13 13 13 13 14 13 13 14 14 14 15 16 17 17 18
7 6 4 2 2 1 2 4 5 1 4 5 5 4 4 8 8 8 7 4 3 3 2 3 2 2 3 3 5 7 9 7 9 13 18 17 18 17 14 13 13 14 12 13 11 8 11 14 14 14 16 16 14 14 14 13 11 10 12 13 13 11 11 12 12 13 12 13 13 13 13 12 12 12 12 12 12 12 12 11 11 11 13 13 12 12 12 12 12 13 13 13 14 15 16 16 17
5 3 1 1 2 2 3 5 4 1 3 4 6 5 5 7 7 6 5 3 2 3 2 1 1 1 2 4 4 5 10 14 15 17 19 17 17 16 13 13 13 13 12 12 9 9 13 14 14 15 16 15 14 14 13 13 11 11 13 13 12 11 11 12 12 12 12 13 13 13 13 12 12 13 12 12 11 12 11 11 11 10 12 13 13 12 12 12 11 12 12 12 12 13 14 15 16
3 2 1 1 2 3 4 4 4 2 5 4 6 4 3 4 5 5 5 4 3 3 4 2 1 1 1 6 7 5 8 14 16 17 17 17 16 14 13 13 13 13 12 11 8 11 15 13 14 16 16 14 13 13 12 12 11 11 13 13 12 11 10 11 12 12 13 13 13 12 12 12 12 13 12 12 11 11 10 10 10 10 11 12 12 12 11 11 11 11 11 11 11 12 13 14 14
3 2 1 1 3 3 5 4 2 1 5 5 6 5 2 2 2 4 5 5 4 3 5 3 2 1 1 7 6 5 9 11 15 17 16 16 14 12 13 13 13 13 11 10 10 12 14 13 14 16 15 14 13 12 12 11 10 12 13 12 12 11 9 11 11 11 12 11 11 10 11 12 11 12 11 11 10 10 10 10 10 9 10 11 11 11 10 10 10 10 9 10 10 11 12 12 13
2 2 0 1 3 4 4 2 2 2 5 5 5 6 3 2 1 2 5 6 4 4 5 2 1 2 1 6 3 5 12 12 15 18 17 14 13 13 14 15 14 12 12 12 11 12 12 13 14 15 15 13 12 12 11 11 12 13 14 12 11 11 9 10 9 8 8 9 9 8 9 11 11 11 11 10 10 9 9 9 9 9 9 10 10 10 9 9 9 9 8 9 10 11 11 11 12
1 2 1 1 4 4 2 1 1 3 5 3 5 5 2 2 1 2 4 5 4 4 5 3 1 1 3 3 2 7 13 12 15 18 17 14 13 14 14 16 14 12 13 11 11 12 12 12 14 15 14 13 12 12 11 13 13 13 13 12 11 10 8 8 8 7 8 8 9 9 10 11 10 11 11 11 11 10 9 9 8 8 9 9 9 9 8 8 8 8 9 10 10 10 10 11 11
2 3 2 3 4 4 2 1 1 3 3 3 4 2 2 3 2 2 2 4 4 3 5 4 2 2 1 4 4 7 11 13 16 18 17 14 12 13 15 15 15 14 12 11 12 12 12 12 13 14 14 13 12 11 11 12 11 11 12 12 10 10 9 8 8 9 9 9 10 10 10 11 10 10 11 11 11 10 10 9 9 9 8 8 8 8 8 8 8 9 10 10 10 10 10 11 11
2 3 1 3 4 4 3 3 2 2 2 3 3 1 2 2 1 2 2 2 3 2 5 5 2 0 1 4 4 4 8 16 18 17 16 14 13 13 14 15 15 15 13 13 12 10 11 12 13 14 13 13 12 11 11 10 9 10 11 11 10 9 9 9 9 9 10 10 9 8 8 10 9 8 10 9 9 10 10 9 9 9 8 8 8 8 8 9 10 10 10 10 10 10 11 11 11
2 3 2 2 4 4 2 2 3 2 2 3 4 3 1 3 4 5 5 4 4 3 4 5 3 1 1 1 3 6 12 18 19 18 16 14 13 12 14 15 15 16 14 14 12 11 12 11 13 14 13 13 12 11 11 10 9 9 10 10 9 8 8 8 8 9 10 10 8 7 7 9 8 7 8 9 9 9 9 9 9 9 9 9 9 10 10 10 11 11 10 10 10 10 10 11 11
2 3 2 1 4 5 2 4 1 3 3 2 1 2 1 4 3 2 3 2 2 1 1 2 1 1 3 4 7 15 19 20 20 18 16 15 13 14 14 15 15 15 14 13 13 14 14 11 12 14 13 12 12 12 12 11 10 8 9 8 9 9 8 8 8 10 9 8 7 6 7 8 8 7 8 8 8 8 8 9 10 10 10 10 10 11 11 11 10 9 9 9 8 8 9 10 11
3 2 1 2 4 4 1 0 1 2 3 3 3 1 0 4 2 1 1 2 1 2 1 3 3 2 5 7 16 22 22 22 21 18 16 14 14 15 14 15 16 15 13 13 14 14 14 11 11 14 14 13 12 12 12 12 10 8 9 8 9 10 9 8 8 9 8 7 6 5 6 7 6 6 7 7 8 8 9 10 10 10 10 11 11 10 10 10 8 8 7 7 8 8 9 9 10
2 1 2 3 4 3 3 4 3 1 3 4 5 3 3 3 2 1 2 2 2 3 3 4 4 6 8 11 20 22 22 22 21 18 16 14 14 15 14 15 16 15 14 14 14 14 14 13 12 14 13 15 15 13 12 13 11 9 9 9 9 10 10 9 9 9 8 7 6 6 6 5 4 4 5 7 7 9 10 9 9 9 9 9 9 9 9 8 7 6 6 6 7 8 8 7 9
1 2 3 4 1 1 2 4 4 2 3 3 5 4 3 3 2 1 1 4 5 4 4 5 5 7 6 10 19 21 21 21 19 17 15 14 14 15 15 16 17 16 15 14 15 15 15 15 15 14 13 16 17 13 11 12 12 8 8 9 9 11 11 10 9 8 7 7 8 8 7 5 5 5 5 7 7 8 9 8 8 8 7 7 7 7 6 6 5 5 6 7 7 8 8 7 8
1 2 3 2 3 3 2 4 4 3 3 3 4 3 1 3 2 1 1 3 4 6 6 7 8 8 7 9 18 20 19 19 18 16 15 14 14 15 15 15 17 18 17 16 15 15 15 15 15 15 15 17 16 13 9 9 11 9 8 8 9 10 11 11 9 8 7 7 9 9 6 8 9 7 6 6 6 6 7 7 6 6 5 5 5 5 5 4 3 4 6 7 7 8 7 5 5
0 1 2 2 4 4 3 4 4 3 2 3 2 1 1 3 3 1 2 4 4 4 2 3 7 11 11 10 16 19 18 19 18 17 16 15 14 15 16 16 16 17 18 16 16 15 15 15 15 16 16 16 15 13 10 9 11 12 10 9 9 10 11 12 10 10 9 9 10 9 8 12 11 8 8 7 5 5 6 5 5 5 4 4 3 3 3 3 3 5 7 7 6 6 5 5 5
2 1 4 4 1 2 4 5 3 1 1 1 3 3 2 3 3 3 4 4 3 1 3 4 1 9 15 12 15 17 16 18 18 17 17 17 15 14 16 17 15 16 17 17 17 15 15 15 15 15 17 17 15 14 13 12 13 13 12 11 10 11 12 13 12 12 12 12 11 10 11 13 11 8 9 8 5 5 4 3 3 3 3 3 2 2 1 2 3 5 6 5 4 4 4 6 7
3 3 3 5 4 1 4 4 1 3 1 2 4 3 3 4 4 4 5 7 3 2 4 4 6 9 19 17 16 15 13 16 18 19 20 19 18 15 14 17 17 18 19 17 16 16 16 16 15 16 17 18 16 14 14 15 15 14 14 13 12 12 12 12 12 13 13 14 13 11 12 13 11 8 9 9 7 7 5 3 3 3 2 2 2 2 1 3 4 3 3 4 4 4 5 7 6
4 4 5 2 4 1 3 3 1 2 2 2 2 2 4 4 4 1 1 5 5 0 6 5 4 11 19 15 14 14 14 17 18 21 21 20 20 18 14 16 17 18 19 17 16 16 17 17 16 16 18 19 17 15 14 15 16 13 13 15 14 13 13 13 13 12 13 14 14 12 11 11 10 9 10 10 10 8 7 6 5 5 5 3 4 2 1 4 3 2 1 4 4 4 6 6 6
5 6 6 4 1 1 1 0 2 2 1 0 1 4 6 5 1 1 3 7 8 3 5 6 3 10 14 12 13 13 13 16 18 20 21 20 20 19 16 15 15 18 19 17 16 16 16 17 18 17 18 19 18 16 14 14 15 13 13 16 16 14 13 13 12 12 13 14 15 13 11 10 10 10 10 9 10 9 8 9 7 5 6 4 3 2 1 3 1 1 2 3 3 4 6 6 7
6 4 4 5 2 2 1 2 4 2 2 1 3 6 6 2 1 3 6 8 8 5 6 5 5 7 9 9 11 12 11 15 18 19 20 20 21 21 20 17 16 17 18 17 17 16 16 18 19 19 18 18 18 17 16 13 15 15 14 17 17 15 14 12 12 13 13 13 14 14 13 11 10 10 9 9 9 9 10 10 8 6 6 3 2 3 0 0 1 2 3 4 4 6 6 6 7
6 3 2 2 2 2 2 4 4 4 4 4 6 6 6 1 2 4 2 2 2 7 6 5 5 6 7 7 9 12 13 15 18 18 18 19 20 22 22 21 18 17 18 18 18 17 17 18 19 20 19 19 18 18 17 15 15 16 16 17 17 17 17 14 13 14 12 12 13 15 16 12 11 10 10 10 9 10 9 9 9 6 5 4 2 3 3 3 3 3 4 5 6 6 5 5 5
6 5 2 2 4 5 5 6 5 4 4 2 3 7 8 4 4 6 3 0 3 6 6 6 6 6 7 7 8 10 12 16 19 18 18 19 20 22 23 23 22 19 20 20 19 18 19 20 19 20 20 20 20 18 18 16 15 17 16 17 18 18 18 15 14 14 12 12 11 14 17 15 12 11 10 10 9 9 8 7 8 5 4 4 4 4 5 5 5 5 5 6 5 4 3 3 3
5 6 2 4 5 7 9 8 6 4 2 3 3 6 9 7 8 10 10 7 7 7 6 7 7 6 7 7 7 7 10 16 18 18 19 21 21 22 22 24 24 21 21 20 20 20 20 21 20 20 20 21 21 19 18 17 16 17 16 17 17 18 19 17 15 15 13 13 12 13 17 16 14 12 11 12 10 9 8 7 8 6 5 5 6 5 5 4 4 4 4 5 4 4 4 3 2
5 5 4 3 4 7 9 9 9 5 2 4 3 4 7 6 7 9 10 8 7 6 6 7 7 6 6 7 6 6 10 14 17 19 21 21 22 22 23 24 25 23 21 20 21 21 20 20 21 21 20 21 22 19 18 18 17 17 17 17 16 17 20 19 17 17 14 14 15 15 17 16 15 13 11 12 12 10 9 9 9 7 6 7 7 5 4 3 4 4 4 4 2 4 4 2 2
4 3 2 4 4 4 6 9 11 8 3 5 4 5 7 6 6 4 4 7 6 6 6 7 6 6 6 6 7 7 9 13 17 20 22 22 22 23 24 25 26 25 22 22 22 22 21 19 21 22 22 22 23 21 19 19 19 18 18 17 17 17 19 20 18 17 15 15 16 15 17 17 16 14 11 11 12 12 10 9 9 8 7 8 7 5 5 5 5 5 4 3 2 3 3 1 1
4 3 2 4 4 3 4 5 9 8 3 5 7 5 6 8 4 3 4 5 5 5 5 6 7 7 6 6 7 6 8 13 17 20 22 22 23 23 24 25 27 27 25 23 22 23 23 21 20 21 23 24 24 23 21 20 20 19 19 18 18 19 18 19 19 17 16 16 15 15 17 18 17 15 13 12 11 12 11 10 8 8 9 9 7 6 6 6 5 6 4 3 3 2 2 0 1
4 4 3 4 5 4 3 1 4 7 4 5 9 5 2 4 5 5 4 4 5 4 5 6 7 8 7 6 6 6 7 10 13 18 22 24 23 24 25 25 26 28 27 25 23 24 26 24 22 21 23 24 25 25 23 21 20 20 19 18 19 19 18 18 18 17 16 16 16 15 16 18 18 16 16 15 13 12 11 11 9 9 10 10 8 6 6 5 5 5 4 3 3 3 2 2 3
4 4 3 3 6 6 4 0 1 4 4 5 8 8 6 5 4 4 5 6 6 6 6 6 6 7 7 6 6 6 7 8 10 17 22 24 24 23 25 26 26 27 28 27 25 25 26 27 27 25 22 23 24 25 25 23 21 20 19 18 19 19 19 18 18 17 16 16 17 17 16 17 18 17 17 17 16 13 12 12 11 10 10 9 8 8 7 6 7 7 5 4 4 3 4 4 3
5 5 4 4 5 7 6 3 1 5 5 6 7 8 10 9 9 8 7 7 7 7 7 6 6 6 7 7 6 6 7 8 10 18 23 24 25 24 24 26 27 28 29 29 27 25 26 27 29 29 26 24 23 23 25 25 22 21 20 19 20 20 19 19 18 17 17 17 18 18 17 16 17 18 17 17 16 15 13 13 13 11 10 9 9 9 8 8 9 9 8 6 5 5 6 5 3
8 7 6 5 5 7 7 5 4 6 5 6 8 9 10 9 9 9 9 8 9 9 8 7 7 6 6 7 6 7 7 8 12 19 22 23 25 25 25 26 27 28 29 30 29 27 27 27 28 31 31 27 25 23 23 25 24 22 22 21 21 21 20 19 20 18 18 19 18 18 18 17 16 17 17 16 15 15 14 14 13 13 12 11 11 10 10 10 11 10 8 7 6 6 6 5 2
6 5 6 6 5 6 7 6 6 6 4 6 8 9 11 10 8 9 9 10 9 10 10 9 8 7 7 7 8 9 8 8 12 19 23 24 25 26 26 26 27 28 28 29 31 31 30 29 29 31 33 31 29 27 26 27 27 25 24 24 24 23 22 21 21 21 20 19 18 18 19 19 17 17 18 17 16 15 15 15 14 14 14 13 13 12 11 11 12 9 7 8 8 7 5 4 2
4 3 4 5 6 7 4 6 6 6 3 4 7 9 12 12 10 10 10 11 10 10 11 11 10 9 8 8 9 9 8 7 10 15 21 25 25 26 27 26 28 30 30 31 32 33 32 31 31 30 32 32 32 31 29 29 30 29 28 28 26 25 24 24 23 24 23 21 20 19 20 21 21 20 19 19 18 17 16 16 15 15 15 15 14 13 12 12 12 10 9 10 10 8 5 5 5
5 3 3 5 6 6 2 8 7 5 3 4 6 8 10 11 11 11 11 11 11 11 11 10 10 10 9 9 10 9 8 8 9 10 17 24 26 27 28 27 29 31 32 33 32 33 32 32 33 31 31 32 32 32 31 31 30 30 28 27 27 26 25 26 25 25 26 25 23 22 21 23 23 23 22 22 20 18 17 17 16 15 16 16 15 14 14 14 13 11 11 11 11 8 6 7 8
6 4 4 5 5 5 2 5 6 5 3 5 6 7 8 10 11 11 11 12 12 13 12 10 10 10 11 11 10 10 10 10 10 9 12 19 24 25 27 28 29 31 31 32 33 33 34 34 35 34 32 32 32 32 31 30 29 27 26 24 26 26 25 26 26 25 26 27 26 25 24 24 24 24 24 24 22 21 20 18 17 16 17 17 16 16 16 15 13 13 12 12 11 9 9 10 10
6 6 6 5 5 6 3 4 4 3 4 6 6 6 7 9 11 11 11 12 13 13 12 12 10 10 10 10 9 11 12 11 11 11 11 15 20 24 28 29 30 30 31 33 35 36 36 37 37 35 34 32 32 33 31 29 27 26 25 22 22 24 23 24 25 26 26 27 28 28 27 26 26 25 25 25 24 23 22 21 19 18 18 18 17 18 18 16 15 15 14 14 13 12 12 13 12
6 7 7 7 6 7 5 6 4 1 3 4 4 3 4 5 8 9 6 8 12 12 13 14 12 10 10 9 9 10 11 11 12 12 12 15 20 24 26 28 30 30 32 34 36 37 37 37 37 36 35 34 33 33 32 30 29 28 28 26 25 26 25 26 28 29 29 29 28 27 27 28 28 27 26 26 25 24 24 24 22 20 20 20 19 19 19 18 17 17 17 15 13 12 12 12 12
4 7 8 9 8 6 4 2 3 1 3 1 3 3 4 4 6 7 5 5 9 10 12 15 13 12 11 10 10 9 9 10 10 11 12 15 20 22 24 29 31 32 34 35 36 38 37 35 37 38 37 36 35 34 33 33 33 31 32 32 31 30 29 28 30 30 30 30 29 28 28 29 29 29 28 28 27 26 26 25 25 24 23 22 21 21 20 19 18 18 18 16 14 14 14 12 11
3 8 12 11 8 5 4 3 2 1 2 1 4 4 4 7 6 7 8 9 9 9 11 13 14 15 13 12 12 11 11 10 10 10 11 15 20 23 26 30 34 35 36 36 36 38 38 37 38 39 39 38 37 36 36 37 37 35 35 34 33 32 31 30 29 29 29 29 29 29 30 30 29 29 30 30 29 28 27 27 27 26 25 23 22 22 21 20 19 19 19 16 16 17 18 15 11
2 7 10 9 7 5 4 3 2 2 3 3 5 4 4 7 4 5 8 9 9 10 10 11 13 16 16 13 12 13 13 12 12 12 12 14 21 27 31 33 36 38 37 37 39 39 38 38 37 38 39 39 38 37 37 39 39 37 36 36 34 33 32 30 28 28 28 28 29 30 31 31 31 30 31 31 30 29 28 28 28 28 27 25 24 23 23 22 21 20 19 18 20 21 19 17 14
4 6 6 4 3 1 1 1 1 4 2 6 5 4 4 6 4 4 6 6 7 8 8 8 10 13 15 13 13 14 13 12 12 13 13 16 24 31 34 35 36 38 38 38 38 36 36 36 35 36 38 38 38 38 38 39 40 38 37 36 36 34 32 30 28 28 28 28 29 30 31 32 32 31 32 32 31 30 29 29 29 30 29 28 26 24 24 24 23 21 20 21 23 22 18 16 15
6 6 6 5 2 3 4 3 4 2 5 6 6 7 5 5 4 5 6 7 8 8 6 7 8 8 11 12 12 12 11 11 11 12 13 18 25 31 32 32 33 35 35 34 34 34 35 35 36 37 38 37 37 38 39 39 40 40 39 38 37 35 33 31 30 30 30 30 31 31 31 32 33 33 33 33 33 33 32 31 31 31 30 29 27 25 24 24 24 22 22 23 23 20 17 15 15
7 5 5 4 2 4 3 3 3 2 5 1 5 9 8 7 5 2 3 4 6 8 7 7 8 8 8 10 10 11 10 10 10 10 11 14 18 22 25 27 30 30 30 32 34 34 34 35 36 37 37 38 37 37 38 39 39 41 40 38 37 36 34 34 34 33 32 33 33 33 32 32 33 34 34 35 35 35 35 33 32 32 31 29 28 26 24 23 24 23 22 24 23 20 18 17 17
7 6 7 6 2 1 1 2 2 5 3 1 1 3 6 9 7 6 9 9 6 7 7 7 8 8 7 6 8 9 8 8 9 9 9 9 10 14 20 24 26 28 30 33 34 33 34 34 35 36 38 39 38 37 38 39 39 40 41 39 37 36 35 35 36 35 34 34 34 34 34 33 34 35 36 37 38 38 37 35 33 32 31 29 28 26 24 23 24 24 24 26 25 22 20 18 18
11 9 9 8 5 3 4 4 2 4 4 4 2 3 3 6 4 9 15 14 12 9 8 7 7 8 7 4 2 3 3 4 6 7 7 7 7 9 15 19 21 24 28 30 30 31 32 32 33 35 37 37 37 37 38 39 40 40 40 39 38 36 36 36 36 35 35 34 34 35 36 36 37 37 38 39 39 38 37 36 33 31 29 28 27 25 25 26 26 26 26 26 25 21 20 20 20
11 8 7 7 5 5 5 4 4 4 1 3 4 3 3 3 2 6 8 8 9 7 7 7 6 8 7 4 3 3 3 3 3 4 4 4 4 6 9 12 15 19 22 23 26 28 29 30 32 33 34 34 35 37 37 39 41 40 38 37 37 37 36 36 36 35 35 35 35 36 37 37 38 39 40 39 38 38 37 36 32 30 28 27 26 25 26 28 29 27 26 25 23 20 20 22 22
6 4 6 6 4 4 3 2 4 4 2 1 5 3 3 2 6 9 5 4 6 6 7 6 7 8 6 6 7 6 6 5 5 4 4 4 6 7 9 10 12 16 18 20 22 26 28 29 30 31 32 32 33 36 37 37 38 37 37 37 37 37 36 36 36 35 35 35 35 36 37 38 37 38 39 38 38 38 38 36 34 31 29 28 28 28 27 29 29 27 25 24 22 20 22 24 24
4 3 7 4 1 3 1 1 1 2 2 3 4 4 5 4 9 10 9 11 9 7 7 7 8 8 7 7 8 7 6 6 6 6 6 7 8 11 14 16 16 18 20 23 25 27 29 31 30 30 31 30 31 34 35 35 35 35 36 38 37 37 37 37 37 36 35 35 34 34 35 36 36 36 37 38 39 38 38 37 35 33 31 31 31 30 29 29 28 26 25 24 22 21 23 25 25
7 6 7 4 4 2 1 2 1 2 5 3 5 8 5 3 6 6 7 12 9 8 9 9 8 7 7 8 7 7 7 6 7 7 7 7 8 12 15 17 19 20 21 23 26 27 28 30 31 31 31 31 32 32 33 34 34 34 35 36 37 38 38 38 37 35 34 33 33 34 34 34 34 34 35 36 37 38 38 37 36 34 33 33 33 32 31 31 29 26 25 24 23 23 25 26 26
5 6 8 6 1 3 4 4 4 5 6 4 5 8 6 7 6 2 3 9 8 8 9 9 8 7 8 8 6 5 4 4 5 5 5 5 6 8 10 11 13 14 15 17 19 21 23 25 27 28 29 29 30 30 31 32 33 34 34 34 35 36 36 36 35 33 32 32 33 33 34 34 34 33 34 35 36 37 37 38 36 36 35 35 34 33 32 32 29 26 25 24 24 25 26 27 26
2 4 6 5 3 4 6 5 2 3 5 5 4 4 4 6 7 5 9 10 8 7 7 8 9 8 7 5 4 4 4 3 3 3 3 2 3 3 5 7 8 9 11 12 13 16 18 21 22 24 25 25 25 27 28 30 31 32 31 31 31 32 33 33 32 31 31 32 32 32 33 33 32 32 33 34 35 36 38 38 37 36 36 35 34 33 32 31 28 26 24 24 25 26 27 27 27
6 7 9 7 3 1 2 3 2 2 3 3 4 4 5 4 6 11 14 12 8 7 5 6 7 6 5 6 6 6 5 4 3 4 4 3 3 3 4 6 7 9 11 12 13 14 16 17 19 20 21 22 22 24 25 26 27 28 28 28 28 29 30 30 30 31 31 31 31 32 32 31 31 32 32 33 34 36 38 39 37 37 36 36 35 34 32 30 27 25 24 24 25 26 27 28 29
11 9 10 10 6 3 2 5 5 3 3 3 3 5 6 4 4 8 11 9 7 7 6 5 5 6 6 5 5 5 5 4 4 4 5 5 5 6 7 8 9 10 12 13 14 15 15 16 16 17 18 19 20 20 20 21 21 23 24 24 24 24 26 27 28 29 30 29 29 30 31 31 30 31 31 32 33 36 38 38 37 37 37 36 35 35 34 31 29 26 24 24 25 27 29 30 30
Wind_Direction
333 339 333 330 320 316 296 254 263 248 213 257 158 100 68 59 79 141 117 121 134 69 45 50 38 24 40 338 73 79 45 42 44 27 109 139 135 133 132 130 133 133 130 134 139 135 129 128 121 116 113 115 114 111 105 100 96 94 99 100 100 94 91 94 93 93 90 89 87 86 86 87 84 84 85 81 80 79 77 77 82 83 78 77 78 79 79 78 78 77 76 76 75 73 72 71 71
335 334 318 311 297 294 295 244 268 265 223 227 64 79 109 107 136 106 95 88 79 82 73 62 46 21 53 342 65 80 55 54 73 76 109 126 123 123 135 137 135 132 130 133 139 138 137 140 131 122 119 122 119 112 106 101 98 96 98 97 98 97 95 95 93 95 93 90 89 89 90 90 90 89 88 85 82 82 80 78 82 87 85 83 84 84 79 78 78 77 76 75 75 74 72 71 71
326 316 302 301 277 244 277 292 251 276 274 123 73 82 129 121 95 74 73 80 81 87 78 73 77 5 347 52 55 70 74 70 88 91 114 128 121 128 140 140 139 135 135 136 138 141 143 147 141 133 129 128 123 115 107 103 100 98 99 95 95 97 96 95 95 97 94 91 91 91 91 91 94 95 91 88 84 82 81 81 82 84 85 88 93 91 84 79 76 78 77 75 74 72 71 71 71
314 314 301 305 281 229 266 262 244 280 305 52 85 98 105 95 88 79 80 84 87 100 94 125 126 11 358 33 54 73 82 81 103 111 121 137 134 136 141 140 139 136 138 139 140 144 144 150 151 144 136 132 127 117 110 107 104 103 106 105 102 100 97 96 94 94 94 92 92 92 92 92 95 96 94 90 87 82 80 81 81 83 84 88 94 92 86 79 73 75 78 76 74 72 71 70 70
320 322 283 295 312 293 292 283 274 276 324 5 84 91 77 93 97 92 90 85 85 87 73 188 103 39 46 26 24 72 81 100 112 113 101 119 132 135 139 138 135 134 138 139 145 151 148 156 153 145 139 134 131 123 120 114 109 109 110 112 110 106 100 96 92 93 95 93 93 95 95 96 99 100 97 93 91 86 82 83 85 87 85 83 85 85 82 77 73 74 76 76 75 73 71 70 69
327 316 260 246 284 304 299 275 272 251 356 6 76 74 62 91 103 103 94 83 64 56 17 321 83 78 98 52 54 61 12 107 120 117 114 117 129 133 135 136 133 134 132 133 143 150 153 156 148 142 138 136 134 128 126 117 114 113 108 112 112 108 101 96 94 96 101 103 101 101 99 99 102 103 101 100 98 94 89 89 92 96 93 87 84 83 81 79 77 77 76 74 74 73 71 70 69
320 316 245 221 271 263 256 265 270 319 12 11 61 47 54 91 104 113 116 103 79 79 15 355 33 49 120 115 77 58 30 70 105 110 121 126 128 130 134 135 133 134 131 137 144 146 153 151 144 141 137 137 134 132 129 123 122 113 106 111 111 108 104 100 102 106 109 113 112 106 104 103 102 104 107 108 103 99 94 89 88 96 99 96 91 87 85 83 81 78 77 75 72 72 70 69 68
306 304 268 302 284 224 249 268 276 70 69 33 67 38 30 97 117 126 131 129 140 150 144 26 12 343 155 140 96 79 61 81 99 105 118 127 130 131 133 134 134 131 132 143 148 149 150 145 144 140 138 138 133 134 133 128 125 110 107 111 111 110 112 110 113 116 109 110 109 104 107 111 108 104 107 106 101 100 97 90 87 90 96 98 97 95 92 87 82 80 78 77 74 71 68 67 67
262 227 304 304 284 256 250 254 272 70 103 75 81 77 16 89 130 138 124 111 130 135 137 152 72 40 113 104 94 112 94 91 105 111 118 127 132 132 132 136 134 131 133 139 139 147 148 141 141 140 140 139 135 136 133 129 126 118 116 114 114 116 120 115 117 116 105 104 104 102 104 106 105 101 102 100 99 104 99 94 90 88 92 93 95 96 94 89 85 82 81 79 76 71 68 66 65
232 170 317 302 284 270 256 231 208 76 94 78 83 109 86 93 146 147 133 112 124 124 100 70 61 333 357 104 107 115 112 113 116 115 120 130 133 132 134 135 134 133 132 130 137 149 147 141 141 141 141 141 140 137 132 129 126 126 124 124 126 126 122 113 115 115 109 110 108 111 105 101 102 101 103 104 107 113 109 108 104 97 95 92 91 93 95 94 88 86 85 82 78 72 68 65 65
267 176 201 292 272 260 276 288 127 108 105 105 98 100 111 152 195 162 134 113 121 119 97 82 121 256 256 104 100 113 122 136 129 122 127 133 134 132 133 132 135 134 132 132 141 154 149 144 146 145 145 146 145 136 130 127 126 129 130 137 139 134 128 119 121 120 121 123 123 130 118 107 108 113 116 113 117 122 118 118 116 106 100 97 94 96 98 100 96 92 88 82 79 73 71 67 65
269 229 182 244 266 263 288 324 31 81 99 114 103 93 132 144 173 197 126 113 131 135 135 174 79 304 215 113 108 130 132 146 137 131 131 132 132 131 133 133 135 136 137 137 140 154 154 148 149 151 151 149 145 137 133 132 134 137 140 147 144 142 145 136 135 133 131 131 134 139 132 125 122 128 130 120 118 118 119 121 118 110 107 105 100 101 104 106 101 91 87 83 80 75 73 69 66
248 256 214 231 253 273 298 279 13 61 63 45 65 82 172 150 181 188 122 126 141 159 143 139 58 342 230 97 130 144 144 155 143 135 132 133 132 129 135 135 137 137 136 138 141 152 155 151 154 156 155 153 148 142 140 142 147 148 151 155 147 148 152 151 152 143 137 137 136 137 141 145 141 141 142 136 129 124 125 124 122 120 118 120 114 113 111 104 96 85 83 81 80 77 73 70 67
286 283 277 261 259 262 289 305 330 72 63 37 26 284 161 118 327 26 58 124 105 93 101 96 74 17 99 108 148 161 156 156 144 137 136 136 133 131 137 137 141 141 138 143 148 152 153 157 160 159 158 156 152 147 148 151 153 152 156 162 157 152 151 155 159 152 146 141 132 131 144 154 152 148 151 150 143 139 136 129 129 126 123 130 125 121 115 99 93 86 84 82 81 79 74 70 65
333 316 317 286 285 277 226 263 308 69 73 31 7 318 109 64 10 20 33 53 63 59 87 81 40 29 24 104 160 155 155 152 143 141 139 136 135 135 138 139 143 146 148 149 150 152 156 163 161 159 161 161 158 156 157 155 152 152 158 165 168 166 163 158 154 152 146 140 129 124 139 153 155 149 154 157 153 154 149 143 139 131 127 131 122 114 109 97 93 89 87 86 82 79 74 68 62
331 336 331 287 282 289 208 199 291 67 77 61 22 302 159 86 38 26 31 32 92 114 77 83 55 0 6 34 117 138 149 147 142 142 138 136 136 135 141 142 142 148 153 152 153 156 161 171 164 160 166 167 165 166 164 160 156 157 161 167 174 180 180 167 151 151 149 143 136 128 137 147 151 148 152 159 160 162 155 145 136 128 126 122 114 108 104 98 95 91 88 83 77 76 71 63 57
343 335 262 259 256 275 318 58 42 112 116 107 109 321 179 118 96 120 154 282 129 140 151 87 76 70 51 83 121 135 145 144 143 143 139 144 143 141 150 149 145 152 159 158 161 163 166 174 169 164 169 168 167 173 172 167 167 171 172 170 176 184 188 180 162 159 160 152 140 136 141 139 143 149 144 147 150 148 142 135 125 121 118 113 110 107 102 98 94 87 82 74 67 67 64 56 47
18 317 226 244 240 263 345 30 21 112 98 78 84 26 352 109 133 127 150 228 185 161 150 106 84 85 83 112 128 135 143 143 146 146 146 158 156 153 160 157 151 157 165 166 168 171 171 174 172 171 172 166 166 174 177 174 173 179 182 178 178 183 188 188 178 173 170 161 150 142 134 124 141 163 153 143 140 135 133 129 124 119 115 113 109 106 100 95 91 80 70 63 64 60 53 45 34
55 274 244 247 215 290 356 50 33 39 53 63 83 56 6 34 70 112 231 220 185 187 182 150 134 112 105 129 132 138 145 145 153 155 158 174 172 162 164 164 159 159 168 172 172 175 175 174 176 177 174 170 173 176 179 177 174 181 183 183 181 181 186 187 188 188 185 181 165 148 135 150 182 205 192 155 140 138 137 132 129 124 120 116 108 104 96 88 76 66 60 56 58 55 45 37 26
303 285 258 252 131 110 65 74 59 41 23 48 70 59 61 31 30 138 261 269 211 205 198 173 174 154 145 150 140 144 152 154 164 167 168 187 186 168 166 168 167 163 168 175 176 178 179 179 179 178 174 173 175 173 174 171 171 179 177 184 183 182 186 178 188 189 188 195 169 157 164 185 198 217 211 169 153 150 143 142 137 133 129 120 114 107 94 79 62 61 61 53 44 47 42 34 27
67 296 273 243 146 132 90 89 62 50 35 33 33 1 79 26 356 282 273 283 249 225 216 167 187 165 153 159 150 154 161 162 173 175 174 193 195 176 169 169 172 167 167 173 175 180 183 185 184 179 178 177 175 170 171 168 169 177 178 189 182 179 179 167 186 185 181 204 175 167 195 196 201 220 212 177 160 158 148 147 142 149 146 130 124 111 87 60 47 45 51 51 37 39 32 12 9
129 226 288 292 190 146 113 95 30 352 154 25 20 18 348 328 293 248 235 255 250 130 42 28 42 151 154 162 157 161 170 169 176 179 179 192 197 186 174 167 172 169 167 171 171 182 187 187 188 182 183 183 183 181 181 179 175 179 184 190 181 181 180 170 193 190 185 207 182 178 211 202 196 214 205 172 159 176 168 151 152 168 153 130 115 108 70 60 59 34 34 42 24 14 5 354 358
180 207 274 305 335 82 110 87 356 326 21 51 37 13 319 294 274 237 215 235 241 103 95 53 25 132 154 159 158 166 176 176 180 182 185 190 192 195 182 166 172 171 169 172 170 181 186 187 190 186 186 186 189 190 185 187 183 184 187 185 182 188 189 181 194 193 193 201 184 193 221 203 187 202 204 182 176 186 181 174 189 181 153 151 131 134 78 81 84 55 23 10 5 2 351 347 357
183 174 184 254 341 41 97 82 198 323 354 35 24 306 279 272 281 329 252 259 268 342 114 107 59 130 149 157 163 171 178 182 186 186 188 191 190 195 191 174 175 172 169 174 173 180 187 188 190 189 192 190 190 190 188 195 188 185 194 187 182 190 193 189 190 193 199 198 188 200 211 193 183 198 208 195 183 177 178 182 191 177 163 183 162 156 97 82 70 59 356 335 353 355 344 340 342
198 179 166 156 348 231 109 75 236 277 275 41 323 276 279 270 284 339 267 263 259 237 126 126 118 139 153 164 167 171 178 184 188 189 189 192 191 194 198 190 183 173 169 175 175 177 187 191 191 190 196 194 191 188 189 202 192 182 200 195 183 187 193 191 186 190 202 197 192 194 188 183 187 198 205 199 185 177 185 182 179 172 168 194 173 149 76 83 35 324 301 299 311 330 337 336 328
199 183 151 153 178 224 236 271 260 281 263 269 279 273 278 275 38 275 252 251 236 179 137 145 157 163 165 168 169 171 178 184 188 190 189 189 190 194 200 200 192 180 174 179 179 180 186 192 194 193 196 196 194 192 189 200 195 184 203 203 188 189 187 185 188 192 202 197 191 186 175 182 191 196 197 191 187 185 194 182 171 174 173 194 154 127 200 165 273 289 286 273 277 304 320 332 332
167 149 73 154 230 252 243 261 265 288 278 261 267 276 278 218 148 253 284 321 196 143 152 165 168 184 176 172 173 174 181 187 188 187 188 188 190 194 198 200 198 187 179 181 184 185 185 189 196 197 197 197 196 197 192 195 198 192 204 204 194 196 182 179 196 194 192 189 193 188 173 176 188 198 198 189 190 192 197 180 171 178 165 174 159 153 224 224 228 263 288 294 299 306 308 319 333
140 131 63 269 276 279 258 258 255 262 257 227 277 289 283 251 210 232 238 208 153 154 180 176 181 196 181 182 177 176 184 186 186 186 189 190 192 195 195 198 201 193 184 182 185 186 186 188 194 200 202 201 197 199 197 195 199 198 206 204 198 201 185 180 197 190 184 186 198 196 176 171 180 195 198 187 191 192 189 169 171 185 161 182 204 210 230 232 237 257 285 300 311 325 329 331 341
136 149 198 237 247 269 264 263 263 257 223 98 28 309 277 252 238 231 219 198 174 184 192 174 189 199 184 186 175 178 186 180 182 190 195 194 193 195 195 198 202 199 191 186 187 188 189 189 191 198 204 207 201 199 201 197 201 202 206 205 200 202 191 186 192 185 186 188 198 205 186 175 174 189 196 185 186 189 184 174 178 194 186 194 210 222 245 255 254 255 275 287 302 317 321 324 329
155 172 223 218 223 252 243 247 257 256 208 120 79 290 263 259 267 242 206 175 162 191 199 180 188 198 189 184 174 180 188 182 183 192 197 195 194 195 196 199 202 203 198 192 192 189 189 190 190 193 200 210 206 200 203 201 201 203 205 203 201 205 199 196 195 186 187 192 203 211 198 187 176 183 203 195 185 182 190 191 188 199 203 210 223 242 265 271 273 265 265 272 285 303 298 297 312
167 159 215 220 229 238 212 216 228 230 201 139 150 251 258 265 307 347 121 136 159 202 208 190 186 200 196 179 179 183 191 192 189 192 196 195 194 194 196 199 200 203 202 199 197 193 192 193 193 194 197 209 210 200 204 207 202 204 207 200 199 209 205 203 202 191 189 195 210 215 203 197 184 180 203 211 191 181 195 202 196 204 211 222 234 244 253 253 258 249 243 244 238 290 305 322 336
187 170 178 203 221 245 226 198 195 201 201 161 181 242 263 246 247 56 88 130 167 222 226 203 190 199 201 182 185 184 189 196 194 194 196 196 195 193 195 197 197 199 202 202 200 195 195 197 196 198 200 207 212 203 201 209 207 206 210 202 201 212 210 207 207 200 196 197 209 219 208 202 195 185 193 209 200 188 196 204 210 216 212 224 234 234 244 246 238 226 224 234 224 246 294 160 277
193 204 199 180 197 229 245 200 184 190 199 193 202 232 274 241 209 146 154 162 174 226 250 232 198 192 201 191 189 189 186 191 196 198 196 197 197 194 194 196 196 196 200 203 202 198 197 199 199 199 203 208 213 207 200 205 209 207 210 206 206 216 214 211 212 209 205 201 206 218 215 209 206 196 194 202 201 197 199 203 215 223 220 226 227 225 238 233 226 230 222 223 222 220 252 250 245
178 195 230 205 190 202 200 154 272 192 202 217 213 236 251 259 246 190 185 177 180 207 227 246 222 188 191 194 193 196 195 190 195 201 198 197 197 196 194 195 196 195 199 204 205 203 199 200 203 203 205 207 212 212 203 202 206 206 208 207 209 217 217 213 213 211 210 207 207 214 219 217 213 204 200 202 200 200 205 211 215 219 228 229 216 216 224 216 218 226 211 205 219 221 234 240 247
168 169 203 232 197 199 196 156 152 175 199 230 221 234 239 243 248 247 242 207 201 215 209 229 238 201 182 188 199 198 203 204 200 201 199 196 195 196 194 193 196 196 199 203 204 205 201 201 205 206 206 205 208 214 209 203 203 205 205 204 208 215 217 214 209 208 209 209 207 210 216 219 217 209 205 206 205 203 207 218 218 216 226 223 214 216 215 219 227 227 222 222 225 226 234 245 283
180 179 188 223 216 210 202 158 161 180 194 231 231 243 244 236 233 245 260 238 222 226 215 214 225 220 193 185 200 205 207 212 205 201 199 196 194 195 194 193 195 197 197 200 203 206 204 203 204 206 209 207 206 209 210 206 202 203 204 203 206 210 214 214 208 205 209 209 207 208 212 217 217 209 207 209 210 208 209 218 220 217 223 218 213 216 215 224 233 234 235 234 224 217 237 260 304
193 188 198 226 236 229 207 160 153 174 192 234 231 248 257 251 240 235 250 254 242 229 221 216 209 211 206 191 197 205 210 214 204 198 196 196 195 194 195 193 194 196 197 199 202 205 205 203 202 205 209 209 207 205 205 205 202 202 203 203 204 206 209 210 207 205 207 208 208 209 211 214 215 210 210 212 212 211 209 217 221 216 220 219 212 214 220 222 224 227 224 222 217 204 226 254 268
209 182 212 228 239 246 208 133 139 160 174 243 242 254 258 254 250 238 235 244 251 237 220 218 211 204 204 199 200 203 205 207 201 192 189 192 194 193 194 194 193 195 198 200 202 204 204 203 203 205 207 207 208 206 204 205 205 204 204 204 204 205 208 208 206 206 207 206 207 210 213 214 214 212 213 213 213 213 209 213 219 215 217 220 214 213 219 223 223 224 214 216 221 216 220 225 235
215 189 217 226 231 246 173 127 147 158 164 243 250 257 260 258 253 243 232 230 239 239 223 215 213 209 207 204 203 200 194 196 199 189 183 187 192 193 194 195 196 197 200 201 202 204 204 204 206 206 207 207 208 208 206 206 206 206 206 207 205 205 208 209 209 209 211 210 208 209 214 216 215 213 214 214 213 213 213 212 216 218 217 218 216 211 216 224 227 228 224 220 221 226 224 215 227
213 197 216 234 224 227 200 137 153 159 188 260 271 268 266 264 259 247 233 227 231 234 231 226 216 209 211 208 201 194 191 194 198 193 182 186 190 192 194 197 199 200 201 201 202 204 205 206 207 207 207 208 209 208 208 208 207 206 206 209 209 208 210 211 211 213 216 216 214 212 214 218 219 216 216 217 214 213 216 215 215 218 217 218 218 212 216 224 225 224 225 219 211 216 218 208 214
210 206 216 233 220 220 210 139 153 183 219 246 271 286 270 244 242 243 232 226 230 231 230 233 225 211 212 211 204 196 191 190 192 194 186 184 190 195 197 199 200 202 202 202 202 203 205 207 207 207 207 208 210 210 209 208 207 205 204 206 208 208 210 209 209 212 214 217 218 217 216 218 219 219 217 218 219 217 216 217 216 216 215 216 216 216 217 221 224 221 219 219 211 208 211 203 206
207 210 222 237 229 231 211 146 138 269 259 217 205 269 278 235 233 241 229 213 223 228 226 231 230 218 211 213 214 205 194 189 189 192 187 186 193 196 199 200 202 205 206 205 205 205 206 207 207 207 207 208 210 210 209 206 206 204 201 200 200 201 204 206 206 209 210 213 217 218 218 218 218 220 219 219 220 219 218 216 216 217 217 217 217 220 220 218 224 220 214 219 212 203 208 204 207
200 189 205 238 245 253 259 154 141 238 282 196 172 236 285 300 274 260 266 240 226 223 218 224 229 223 213 210 211 209 201 193 190 190 185 188 193 193 198 202 203 207 209 208 208 208 208 207 206 207 207 208 208 208 207 206 205 205 204 203 203 203 204 207 209 210 211 212 215 217 217 217 218 220 220 219 219 219 219 217 216 218 219 220 220 221 220 219 222 216 211 217 209 202 211 214 213
194 169 182 219 241 256 271 276 235 235 345 302 203 212 271 282 266 245 258 264 252 236 220 216 219 223 220 211 207 208 206 198 193 193 187 188 192 194 199 202 205 209 209 208 209 210 209 208 208 207 208 208 207 207 207 207 206 205 206 207 208 209 210 210 210 211 214 214 214 216 215 215 216 218 218 218 217 218 219 217 216 219 220 221 221 221 220 218 216 210 209 214 210 205 214 222 220
177 161 169 197 220 235 250 264 264 50 25 273 211 176 254 268 248 211 230 242 243 239 231 220 215 217 217 211 205 206 209 205 199 199 195 191 193 196 201 203 207 210 209 209 210 211 210 209 209 208 209 209 208 207 208 209 208 207 207 208 210 213 214 213 211 211 213 212 212 213 213 213 214 215 215 216 216 217 219 217 215 218 220 219 220 220 218 216 213 210 214 220 216 210 214 220 218
156 140 121 120 173 209 16 306 71 60 308 250 206 180 249 273 250 210 226 231 230 231 231 231 222 212 208 206 207 207 208 207 205 204 203 199 196 198 203 205 207 210 210 211 212 212 211 211 210 209 210 209 209 208 208 210 210 208 208 209 211 212 212 211 210 210 211 209 209 209 209 211 211 211 213 214 215 215 217 217 215 217 218 219 219 218 217 216 215 217 222 223 216 209 210 214 213
138 126 100 88 68 45 41 46 74 57 262 236 192 198 239 277 235 187 202 211 211 218 226 234 233 219 208 206 210 210 207 206 207 207 206 204 202 202 203 204 207 209 210 210 211 211 211 211 211 212 212 211 210 209 209 210 210 209 210 212 212 212 210 208 208 210 210 209 210 209 208 210 210 211 213 213 213 214 215 215 216 217 217 218 218 219 220 221 221 223 222 216 209 204 205 209 209
143 136 122 109 41 37 33 36 90 216 252 214 189 199 210 239 240 206 238 228 202 203 212 224 230 229 219 212 213 211 206 205 205 208 209 204 204 204 201 202 206 206 205 206 209 209 209 210 210 212 213 213 212 210 209 210 211 211 213 214 214 213 210 208 207 209 209 210 211 211 211 211 212 213 213 212 212 213 213 214 215 216 216 216 219 222 225 226 226 223 216 208 204 203 207 212 211
165 159 147 154 165 117 177 182 185 229 241 322 199 184 214 240 252 256 265 273 250 214 207 217 225 235 237 224 219 218 210 206 204 208 212 205 199 197 196 200 202 200 201 205 207 207 208 209 209 211 213 213 212 212 211 211 212 214 214 214 215 214 212 210 210 210 210 210 210 210 210 210 210 210 210 210 210 210 212 212 212 214 214 217 222 224 226 227 223 216 210 206 204 208 213 219 220
182 175 165 174 169 168 199 188 229 245 229 226 160 88 271 266 262 240 241 249 247 236 230 230 227 239 256 258 208 215 220 214 207 205 210 214 212 199 197 200 200 198 202 205 205 206 207 208 209 211 215 214 213 213 213 213 214 216 216 216 215 215 214 213 212 212 211 211 211 210 209 209 209 208 207 208 208 208 210 211 212 213 215 218 221 222 225 224 216 209 207 207 210 217 220 222 224
187 176 164 182 171 175 194 178 213 226 187 220 179 134 241 230 299 258 238 240 239 239 244 241 240 243 253 267 237 211 213 193 170 175 182 180 180 187 193 199 201 203 205 205 205 206 207 210 211 213 216 215 214 215 215 215 217 217 217 218 218 217 216 216 215 214 212 212 212 211 210 211 211 210 208 206 206 206 208 211 213 214 215 218 216 215 217 214 208 205 207 210 217 223 220 219 222
191 158 159 201 196 169 177 171 199 188 107 208 197 230 265 254 298 288 268 268 249 242 252 245 247 248 245 257 255 241 223 196 168 166 181 177 172 184 194 197 201 205 207 208 208 209 210 212 213 216 218 217 216 217 217 218 219 219 219 219 219 219 218 217 216 216 215 213 213 213 212 212 212 211 209 207 207 208 210 212 213 212 214 216 212 209 208 206 203 205 208 215 221 222 219 219 217
165 169 176 194 76 116 152 262 116 123 232 221 182 246 286 296 290 274 247 253 246 229 243 240 237 242 238 240 248 245 224 198 185 185 195 197 191 198 206 208 208 207 209 212 213 215 215 215 216 217 220 219 219 219 220 220 220 220 221 221 220 220 219 218 218 217 216 215 215 215 214 212 213 212 210 210 211 212 213 213 212 211 212 213 210 207 206 203 203 208 214 220 224 224 220 216 210
151 185 176 124 43 56 126 238 167 159 243 237 183 218 229 206 263 268 232 242 241 215 222 232 235 234 233 238 244 240 219 199 200 201 203 201 196 204 210 215 217 216 216 217 219 220 220 219 219 219 221 221 221 222 222 222 222 221 222 222 221 221 220 220 220 218 217 216 217 217 215 214 213 214 214 214 215 215 213 211 211 211 210 209 209 207 206 205 206 211 216 221 225 224 216 207 201
154 173 166 146 202 204 170 202 209 196 233 260 210 217 215 200 223 303 245 232 229 215 209 216 231 231 232 242 241 223 195 180 197 204 207 206 204 210 210 213 217 217 219 220 221 222 222 223 223 223 225 225 225 225 225 225 224 224 225 225 224 223 223 222 220 219 218 217 218 217 215 215 216 216 217 218 218 217 213 210 210 210 208 207 207 207 206 207 210 213 214 217 220 217 208 201 196
106 151 179 196 226 195 182 194 183 180 224 256 238 222 229 211 193 203 234 228 211 209 199 198 222 229 223 210 178 156 139 133 147 152 155 156 167 187 188 192 199 202 209 213 213 215 217 221 223 223 225 226 225 226 226 226 226 225 225 225 225 224 223 223 221 219 219 219 219 218 216 216 217 217 219 219 219 218 215 211 209 208 206 205 204 204 206 208 212 215 216 219 217 210 204 198 191
164 176 190 198 197 130 173 199 191 165 202 245 257 250 254 236 183 197 222 231 218 207 190 194 215 211 181 152 143 146 146 142 131 125 124 118 130 170 188 194 197 200 208 213 214 215 215 217 220 221 223 224 224 224 225 227 226 225 225 225 224 223 222 222 221 219 220 221 221 220 218 216 216 217 218 219 220 219 216 213 209 206 205 205 204 204 206 209 212 215 217 219 214 205 200 194 188
179 186 188 187 184 144 155 207 209 197 213 235 258 266 264 248 196 195 208 219 211 188 179 195 193 162 142 135 144 152 153 159 159 153 158 160 172 188 194 198 203 208 213 217 217 217 217 219 220 222 224 224 224 223 223 225 225 223 223 222 221 220 220 221 221 220 221 223 223 221 219 218 217 218 220 221 221 219 216 212 208 206 205 205 206 206 207 209 211 214 215 214 209 201 196 190 186
Height
813 813 811 812 810 811 811 811 828 824 822 832 820 825 828 816 817 819 824 824 824 823 817 818 817 819 824 828 829 832 834 835 840 844 851 849 843 847 846 847 848 849 850 850 852 852 853 854 854 855 855 856 856 857 858 859 860 860 861 861 862 862 862 863 863 864 864 864 864 864 864 865 865 866 866 867 866 867 867 867 867 867 867 867 867 868 868 868 868 868 868 868 868 868 868 867 867
813 813 812 813 810 815 814 810 833 831 824 833 822 824 826 815 819 822 824 825 826 823 817 819 820 820 821 822 822 828 836 835 835 838 842 842 844 847 846 848 848 849 851 851 853 853 854 854 855 856 856 857 857 858 859 859 860 861 861 862 862 863 863 864 864 864 864 865 865 865 866 866 867 867 868 868 868 868 868 868 868 869 869 869 869 869 870 870 870 870 870 870 869 869 869 869 868
814 814 812 814 811 814 815 814 834 836 829 835 831 823 818 820 824 824 824 823 823 819 819 822 823 823 822 825 826 832 841 836 834 836 839 842 844 846 848 849 849 851 851 852 853 853 855 855 856 856 857 858 858 859 860 860 861 861 862 862 863 863 864 864 864 865 865 865 865 866 867 867 868 868 869 869 870 870 870 870 870 870 870 871 871 871 871 871 871 871 871 871 871 871 870 870 870
814 814 813 814 815 816 820 825 830 833 832 831 834 824 815 822 824 825 824 822 821 819 822 824 826 824 824 833 830 833 840 837 836 837 839 841 843 846 848 849 850 851 851 853 853 854 855 856 856 857 858 858 859 860 860 861 861 862 862 863 863 864 864 865 865 865 866 866 866 867 867 868 869 869 870 871 871 871 871 872 872 872 872 872 872 872 872 872 872 873 872 872 872 872 871 871 871
814 814 813 814 821 822 823 829 825 828 832 825 831 825 815 820 823 826 823 822 820 821 823 824 830 825 824 831 829 837 842 837 837 837 839 841 842 846 848 849 851 851 853 853 853 855 856 856 857 857 858 859 860 860 861 862 862 863 863 863 864 864 865 865 866 866 866 867 867 868 868 869 870 870 871 872 872 873 873 873 873 873 873 873 873 873 873 873 874 874 874 873 873 873 873 873 872
814 814 813 814 818 818 826 835 829 828 825 817 826 824 815 818 821 825 824 824 821 822 824 824 828 827 830 832 830 838 839 836 837 837 839 842 843 846 848 850 851 852 853 853 853 854 855 857 857 858 859 859 860 861 862 862 863 863 863 864 864 865 865 866 866 867 867 868 868 869 869 870 870 871 872 872 873 873 874 874 874 874 874 875 875 875 875 875 875 875 875 874 874 874 874 874 874
815 817 814 818 818 818 832 838 829 827 821 813 821 821 816 818 820 824 826 827 826 824 824 825 824 828 836 834 834 838 835 835 836 837 839 842 844 845 848 850 851 852 853 853 853 854 855 856 857 858 859 860 860 861 862 863 863 863 864 864 865 865 866 867 867 868 868 868 869 869 870 870 871 872 872 873 873 874 875 875 875 875 875 876 876 876 876 876 876 876 876 876 876 875 875 875 875
817 819 815 823 829 826 833 833 824 823 821 814 816 819 817 818 819 824 827 828 830 827 827 826 823 832 836 829 839 841 836 837 837 839 840 842 844 846 848 850 851 853 853 852 853 854 855 856 857 858 859 860 861 862 862 863 864 864 864 865 865 866 867 867 868 868 868 869 869 870 870 871 872 872 873 874 874 875 875 876 876 876 876 876 876 877 877 877 877 877 877 877 877 876 876 876 876
816 820 819 826 834 832 832 830 823 817 818 816 817 820 817 816 818 822 826 827 828 827 828 826 825 835 835 832 842 840 837 839 839 841 841 844 845 846 848 849 851 852 852 853 854 855 855 857 857 859 860 861 861 862 862 863 864 864 865 865 866 867 867 867 868 869 869 870 870 871 871 872 872 873 874 874 875 876 876 877 877 877 877 877 877 877 877 877 878 878 878 878 877 877 877 877 877
817 820 824 829 834 838 835 827 822 818 817 817 817 819 818 817 817 820 825 827 826 827 828 824 827 833 832 837 843 839 839 840 840 842 843 845 845 847 848 849 851 852 853 853 854 855 856 857 857 859 860 861 862 862 863 863 864 865 865 866 867 867 868 868 869 870 870 871 871 871 872 873 873 874 875 875 875 876 876 877 877 877 877 878 877 878 878 878 878 878 878 878 878 878 878 878 877
823 821 823 834 839 841 837 828 823 820 816 816 818 817 817 817 818 820 822 826 825 828 829 826 831 831 830 838 842 839 839 840 841 843 844 846 846 847 848 849 851 852 853 853 855 855 856 857 858 859 860 861 862 862 863 863 864 865 865 866 867 867 868 869 869 870 870 871 871 872 873 873 874 874 875 875 876 876 877 877 877 878 878 878 878 878 878 878 878 878 878 878 878 878 878 878 878
829 826 825 840 842 837 833 829 825 819 817 819 822 819 816 817 820 823 823 826 826 828 829 828 830 828 832 839 841 839 839 840 841 842 845 846 847 848 848 849 851 852 853 854 855 856 857 858 858 859 860 861 862 863 863 863 864 864 865 866 867 868 868 869 870 870 871 871 872 872 873 873 874 874 875 875 876 876 877 877 878 878 878 878 878 879 879 879 879 878 879 878 879 879 879 879 879
829 827 830 840 835 831 830 827 824 821 825 826 825 820 816 819 822 822 822 825 826 829 829 826 826 827 833 839 840 839 839 840 841 843 845 846 848 848 849 849 851 852 854 855 856 856 857 858 859 859 860 861 862 863 863 863 864 864 865 866 867 868 869 870 870 871 871 872 872 873 873 874 874 875 875 875 876 876 877 877 878 878 878 879 879 879 879 879 879 879 879 879 879 879 880 880 880
826 824 829 837 830 828 828 828 824 826 835 830 825 820 816 820 821 819 821 827 828 828 826 822 823 829 835 839 843 840 838 840 840 843 844 847 848 849 850 850 851 852 854 856 856 857 858 859 859 860 860 861 862 862 863 864 864 865 865 866 867 868 869 870 870 871 871 872 873 873 874 874 875 875 875 876 876 876 877 877 878 878 878 878 879 879 879 879 879 880 880 880 880 880 880 880 881
825 823 828 836 834 830 827 828 825 830 838 829 825 822 819 821 819 820 823 829 832 825 823 823 823 832 835 836 842 838 837 839 840 843 845 847 848 849 851 850 852 852 854 856 857 858 858 859 859 860 861 861 862 862 863 864 865 865 866 866 867 868 869 870 870 871 872 873 873 874 874 875 875 875 876 876 876 877 877 877 878 878 878 879 879 879 880 880 880 880 880 880 881 881 881 881 881
824 825 831 838 840 835 828 825 824 833 837 828 825 822 823 824 819 824 824 825 830 824 824 827 826 831 832 831 834 833 836 839 841 844 845 847 848 850 851 851 852 852 854 856 857 858 858 859 860 861 861 861 862 863 864 864 865 866 866 867 867 868 869 870 871 871 872 873 874 874 875 875 876 876 876 876 877 877 877 878 878 878 878 879 879 880 880 880 881 881 881 881 881 881 881 882 882
824 829 838 843 841 837 830 827 828 834 833 826 825 822 826 827 821 823 821 821 827 827 827 828 826 828 830 831 831 832 836 839 841 843 845 848 848 849 851 852 852 853 854 855 857 858 859 860 860 861 861 862 862 862 864 864 865 866 866 867 867 868 869 870 871 872 873 873 874 875 876 876 876 876 877 877 877 877 878 878 878 879 879 879 880 880 881 881 881 881 881 881 882 882 882 882 882
831 836 842 844 838 835 831 829 828 828 829 826 825 824 826 828 826 823 823 825 827 828 828 828 829 829 830 832 832 834 837 839 841 843 845 847 848 849 850 851 852 853 854 855 857 858 859 860 860 861 862 862 863 862 863 864 865 865 866 867 867 868 869 870 871 872 873 873 875 875 876 876 877 877 877 877 877 878 878 879 879 879 880 880 881 881 881 881 881 882 882 882 882 882 882 882 882
837 839 841 841 834 831 827 827 827 826 828 825 824 825 825 827 826 824 828 830 827 830 830 829 832 833 832 832 834 836 837 839 841 843 845 845 847 847 849 850 851 852 853 855 856 857 858 859 860 861 862 862 862 862 863 864 865 865 866 866 867 868 869 870 871 872 872 874 875 875 876 877 877 877 877 878 878 878 879 879 880 880 881 881 881 881 881 882 882 882 882 882 882 882 882 882 882
837 839 843 837 829 829 826 825 827 825 825 825 826 825 825 825 823 825 829 830 828 829 829 829 833 834 833 832 833 836 837 840 841 843 845 845 846 846 847 849 850 851 852 854 856 857 858 859 860 861 862 862 862 862 863 864 865 865 865 866 867 868 869 870 871 872 872 874 875 875 877 878 877 877 878 878 878 879 879 880 880 880 881 881 882 882 882 882 882 882 882 883 883 883 883 883 883
836 839 842 833 825 829 827 825 826 824 824 825 826 825 827 825 823 826 828 831 830 826 824 824 826 828 831 831 832 835 837 839 841 842 844 845 845 845 846 847 849 850 851 853 855 857 858 859 860 860 861 862 862 862 863 864 865 865 865 866 867 867 868 870 871 871 872 873 874 875 876 877 877 877 878 879 879 879 880 880 881 881 881 882 882 882 882 882 882 883 883 883 883 883 883 884 884
835 838 836 829 824 829 827 825 826 824 823 824 826 828 829 825 825 826 827 833 830 823 820 819 819 821 826 828 831 833 835 837 839 841 842 844 844 844 845 846 848 849 850 852 853 856 857 859 859 860 861 861 862 862 863 864 864 865 865 866 866 867 868 869 870 871 872 873 874 875 875 876 877 877 878 878 879 879 880 880 881 881 881 882 882 882 882 882 883 883 883 883 883 883 884 884 884
834 836 833 829 826 827 827 826 827 825 824 827 827 828 827 827 827 823 824 827 822 818 817 816 816 817 821 825 829 832 833 835 836 838 840 841 842 843 844 845 847 848 849 850 852 854 856 857 859 859 860 861 861 862 863 863 864 864 865 865 866 867 868 868 869 870 871 872 873 874 874 875 876 877 877 878 879 879 880 880 881 881 881 882 882 882 883 882 883 883 883 883 883 884 883 883 883
831 834 832 830 828 827 827 827 827 826 826 827 826 827 827 828 828 822 823 822 817 815 814 815 816 817 820 824 827 829 831 833 834 836 838 839 841 842 843 844 846 846 848 849 851 853 855 856 858 858 859 860 860 861 862 862 863 864 864 865 866 866 867 868 869 869 870 871 872 873 873 874 876 876 877 877 878 879 880 880 881 881 881 882 882 882 882 882 883 883 883 883 883 884 883 883 883
830 830 828 829 830 828 827 827 827 826 826 825 826 828 827 825 824 823 823 819 815 815 814 815 816 818 820 822 825 828 830 832 833 835 837 838 840 841 843 843 845 846 847 848 850 851 853 855 856 858 858 859 859 860 860 861 862 863 863 864 865 866 866 867 868 868 869 870 871 872 873 874 875 876 876 877 878 878 879 880 880 881 881 881 881 882 882 882 883 883 883 883 883 883 883 883 883
829 827 826 828 830 829 828 828 827 826 825 824 827 829 825 821 823 823 819 815 813 813 815 815 816 819 820 821 823 825 828 830 832 833 835 837 839 840 841 842 843 844 846 847 848 850 852 854 855 856 857 858 859 859 859 860 860 862 862 863 864 864 865 866 867 867 868 869 870 871 872 874 875 875 876 876 877 877 878 879 879 880 880 881 881 881 881 882 882 883 882 882 882 882 882 882 882
824 826 827 829 830 828 828 828 826 826 825 824 828 829 824 821 824 826 817 811 812 813 816 816 817 819 819 820 821 823 826 827 829 832 834 835 836 838 839 840 842 843 845 846 847 848 850 852 854 855 856 857 858 858 858 859 859 860 861 861 863 863 865 866 866 867 867 868 869 870 871 873 874 875 875 876 876 877 877 878 879 879 880 880 880 880 881 881 881 881 881 881 881 881 882 881 882
823 827 831 831 830 829 828 828 826 826 825 823 825 827 824 822 825 824 817 812 812 814 816 816 817 818 818 820 820 822 823 825 828 829 831 832 833 835 836 838 839 841 843 844 846 847 848 850 852 854 854 855 857 857 858 858 858 859 859 860 861 862 864 865 865 866 867 868 868 869 870 871 873 874 875 875 875 876 877 877 878 879 879 879 879 880 880 880 880 880 880 880 881 881 881 881 881
824 827 833 833 831 832 829 827 826 825 826 821 824 833 829 823 821 816 812 811 811 813 815 815 817 817 817 818 819 820 821 822 825 826 827 829 830 832 834 836 837 839 841 842 845 846 846 848 850 852 853 854 855 856 857 857 858 858 858 859 860 861 862 863 864 865 866 867 868 868 870 871 872 873 874 874 875 876 876 877 877 878 878 879 879 879 879 880 880 880 880 880 880 880 880 880 881
826 827 831 835 837 836 828 826 826 825 825 819 828 844 835 820 815 808 805 808 812 814 814 814 816 816 816 816 817 819 819 820 821 823 825 826 828 830 832 834 836 837 839 841 843 844 845 846 848 850 851 852 853 855 856 856 857 857 858 858 859 860 861 862 863 864 866 866 867 867 869 870 871 872 873 873 874 875 876 876 877 877 877 878 878 878 879 879 879 879 879 879 879 880 880 880 880
827 830 833 836 843 838 824 823 825 827 825 818 830 847 836 820 815 808 805 808 813 815 814 813 814 814 814 814 816 817 817 818 818 820 822 823 826 827 829 832 833 836 837 838 840 842 844 844 846 848 849 850 851 853 854 854 856 856 857 858 859 859 860 861 862 863 865 865 866 866 868 869 870 871 872 872 873 874 875 875 876 876 876 877 877 877 878 878 878 878 878 879 879 879 879 879 880
827 836 841 839 842 838 823 819 821 825 825 819 831 843 833 821 816 811 809 809 812 814 813 812 813 813 813 813 814 815 815 816 817 818 819 821 823 824 827 829 831 833 835 837 838 840 842 843 844 846 847 848 848 850 852 853 854 855 856 857 858 858 859 860 861 862 863 864 865 865 866 867 868 870 871 871 872 873 873 874 874 875 875 876 876 877 877 877 877 877 877 878 878 878 879 879 879
828 833 840 837 840 840 830 823 819 821 824 823 828 834 828 819 813 811 810 810 812 814 813 811 811 812 812 812 813 813 814 814 815 816 816 818 820 822 824 826 828 830 833 835 836 837 839 840 842 843 845 846 847 848 849 850 852 853 854 855 857 857 858 859 860 861 862 863 864 864 865 866 867 868 869 870 871 871 872 873 873 874 874 875 875 876 876 877 877 877 877 877 877 878 878 878 878
833 832 836 833 833 837 836 830 823 820 826 827 827 828 826 818 812 811 810 809 811 812 812 810 808 809 810 811 812 812 813 813 813 812 813 815 817 819 821 823 826 828 830 832 834 835 836 838 839 841 843 844 845 846 848 849 850 851 852 854 855 855 857 858 859 860 861 862 863 863 864 865 866 867 868 869 869 870 871 871 872 872 873 873 874 875 875 876 876 876 876 877 877 877 877 877 877
833 834 837 834 829 832 833 831 827 824 827 830 829 829 825 818 812 811 809 808 810 810 809 808 806 807 808 809 810 811 811 811 810 809 811 813 815 817 819 821 823 825 827 829 832 833 834 835 836 838 840 842 843 844 846 847 848 849 850 852 853 854 855 856 857 858 859 860 861 862 862 863 864 866 866 867 868 869 869 870 871 871 872 872 873 874 874 875 875 875 876 876 876 876 876 876 877
824 826 831 832 829 828 824 824 826 824 829 832 830 828 822 816 813 810 807 805 807 807 806 806 805 805 806 807 808 809 809 808 807 808 809 811 812 814 816 818 820 822 824 826 829 830 832 833 833 835 837 839 841 842 843 845 846 847 848 850 851 851 853 854 855 856 857 858 859 860 861 861 863 864 865 866 867 867 868 869 869 870 871 871 872 873 873 873 874 874 875 875 875 876 876 876 876
817 820 825 826 827 824 815 817 822 821 829 831 825 825 820 814 811 808 807 804 803 805 804 803 803 803 803 804 806 806 806 805 804 805 807 809 810 812 814 816 818 820 822 823 825 826 828 829 830 831 833 835 837 838 840 841 842 843 845 846 847 848 850 852 853 854 856 856 857 858 859 860 861 862 863 864 865 866 866 867 868 869 869 870 870 871 872 872 872 873 874 874 874 875 875 875 876
817 822 826 827 827 821 809 814 822 820 829 831 822 824 821 813 809 805 804 804 802 801 800 800 799 800 800 800 802 802 802 802 802 803 804 806 808 809 811 812 814 816 817 819 820 822 824 825 827 827 829 831 832 834 835 836 837 839 840 842 843 845 847 848 850 851 853 854 855 856 856 857 858 860 861 862 863 864 865 865 866 867 867 868 869 869 870 870 871 872 872 873 873 874 874 875 875
820 823 828 830 824 817 813 817 821 821 829 830 823 824 820 810 805 802 800 801 799 795 794 795 795 796 797 796 797 798 799 800 799 800 801 803 804 806 808 809 811 812 813 815 817 819 821 822 823 824 826 827 829 830 831 833 834 836 837 839 841 843 844 845 847 849 850 852 852 853 854 855 856 857 858 859 861 862 862 863 864 865 866 866 867 868 868 868 869 870 871 871 872 872 873 873 874
820 824 830 830 821 818 823 824 822 822 826 826 823 824 819 810 804 799 796 794 792 790 789 789 790 792 792 791 792 793 795 797 797 798 798 800 802 804 805 806 807 808 810 811 813 815 816 817 819 820 822 824 826 828 829 830 832 835 836 838 839 841 842 843 845 846 847 848 849 851 851 852 853 855 856 857 858 859 860 861 862 863 864 864 865 866 866 867 867 868 868 869 869 870 871 871 872
820 822 826 826 819 816 819 823 823 822 823 822 826 831 821 808 805 799 791 789 789 787 788 787 786 786 787 787 787 788 789 791 793 794 795 797 799 800 801 803 804 805 806 807 808 810 811 812 814 817 819 821 823 824 826 829 831 833 835 836 838 839 840 841 842 843 843 845 846 847 849 850 851 852 853 854 856 857 858 859 860 861 862 862 862 863 864 864 865 865 866 866 867 868 869 869 870
823 820 820 819 816 812 813 819 824 830 832 823 827 839 821 799 799 797 788 788 789 786 786 786 785 783 783 784 784 784 784 785 787 789 791 793 794 797 798 800 801 801 802 803 804 805 806 808 811 813 815 817 819 821 823 826 828 829 830 831 833 834 835 835 836 837 838 840 841 843 846 847 848 849 850 851 852 854 855 856 858 858 859 860 860 861 861 862 862 862 863 864 865 866 867 867 867
825 817 813 814 812 812 813 817 824 834 836 823 822 837 829 807 800 795 788 787 786 783 784 784 783 781 780 780 780 781 781 781 782 784 786 789 790 793 795 795 797 797 798 800 801 802 803 805 807 809 810 812 814 816 818 821 822 824 825 826 827 827 829 829 830 833 834 836 838 840 842 843 845 846 847 848 849 850 852 853 855 856 856 857 857 858 858 859 859 860 861 862 862 863 865 865 865
821 808 807 813 813 815 816 818 824 829 831 827 821 829 835 823 804 792 788 788 785 781 781 779 778 777 775 776 776 776 778 777 779 780 781 784 785 787 789 790 792 792 794 797 798 798 800 801 803 804 806 808 810 812 813 815 816 818 820 822 823 823 824 825 827 830 831 833 835 836 838 839 841 842 843 844 845 847 848 850 851 852 853 854 854 855 855 856 857 858 859 859 860 861 862 863 864
814 803 805 811 812 814 815 818 826 830 836 839 827 825 836 825 799 788 786 788 788 781 776 774 772 771 770 771 771 772 773 773 774 775 776 777 779 781 782 784 786 787 790 792 792 794 796 798 800 801 802 804 805 807 809 810 811 813 815 817 818 819 820 823 825 827 828 830 831 832 834 835 837 838 840 841 842 843 844 846 847 848 849 850 851 851 852 853 854 855 856 857 858 858 859 861 862
807 803 805 809 811 814 818 824 829 836 844 842 830 826 833 821 796 789 790 788 786 778 771 768 765 764 764 765 766 766 768 769 769 770 771 771 773 774 776 778 780 782 785 787 789 792 794 796 798 799 799 800 802 803 805 806 807 809 811 811 812 814 816 819 822 823 825 826 827 828 829 831 832 834 835 837 838 839 840 842 843 844 845 846 847 848 849 850 851 852 853 855 856 856 857 858 859
803 806 811 817 820 821 825 829 833 844 845 834 826 823 831 827 798 785 787 781 777 773 769 766 761 760 761 760 761 762 763 764 765 766 766 767 768 769 772 774 776 778 781 784 786 788 791 793 795 796 797 798 799 800 802 802 804 805 806 807 808 810 812 815 817 818 820 822 823 824 825 826 828 829 831 832 834 835 836 837 838 840 841 842 844 845 847 848 849 850 851 852 853 855 855 856 857
801 808 816 825 832 834 837 839 842 850 842 827 823 820 828 830 800 778 775 767 765 768 767 765 761 759 758 758 758 757 759 760 761 763 763 764 766 767 769 771 772 775 778 780 782 784 786 788 790 792 794 795 796 798 799 800 801 802 803 804 805 807 808 810 811 813 815 816 818 820 822 823 824 825 827 827 829 830 831 832 834 836 837 839 841 843 844 845 847 847 849 850 851 852 853 854 855
804 810 817 829 841 845 846 848 848 847 837 824 820 821 824 815 791 777 773 765 762 762 760 760 759 757 755 755 755 754 755 757 758 760 761 761 762 763 765 767 769 771 773 775 777 779 782 784 786 788 789 790 793 795 796 797 798 798 799 801 802 804 805 806 807 809 810 812 814 816 817 819 820 821 821 822 823 825 827 828 830 832 834 835 837 840 841 843 844 845 846 847 849 850 850 851 852
802 806 813 824 837 845 846 846 846 840 832 821 816 821 819 801 782 773 767 762 760 757 756 756 755 755 754 753 754 754 754 755 756 758 759 761 761 762 763 764 766 768 769 772 774 777 779 780 782 783 784 787 790 791 792 793 794 794 796 798 799 801 802 803 804 805 807 808 810 811 813 814 814 815 816 817 819 821 823 825 827 830 831 832 834 837 838 840 841 842 843 845 846 847 848 849 850
796 794 802 812 819 829 834 835 836 831 827 825 821 820 811 792 777 766 759 757 756 756 755 754 754 753 753 753 753 754 754 755 756 757 758 760 761 762 763 764 765 767 769 771 773 774 776 777 779 780 781 784 786 788 789 789 790 791 793 795 797 798 799 800 801 802 803 804 806 807 808 809 810 811 813 815 817 819 821 823 826 827 828 829 831 833 835 837 839 840 841 842 844 845 845 846 847
797 789 800 810 804 807 817 819 819 818 822 826 823 813 796 781 770 760 759 757 754 755 754 753 754 752 752 754 752 752 753 754 756 757 758 759 760 761 762 763 765 766 768 769 771 772 773 775 776 777 778 781 783 784 785 786 787 789 791 792 793 795 796 797 797 799 800 801 802 803 804 806 807 809 811 813 815 817 818 820 822 824 825 826 828 830 832 834 836 837 838 840 841 842 843 844 845
796 796 803 803 792 795 809 815 812 813 819 817 811 806 794 784 773 758 757 757 753 755 755 753 754 752 753 754 751 752 752 753 754 755 756 757 758 759 760 761 762 763 765 766 767 769 770 771 773 774 776 778 779 780 781 783 785 786 787 787 789 790 791 792 793 795 796 798 800 801 802 804 805 807 809 811 813 814 815 817 818 820 822 824 826 828 830 832 834 835 836 837 839 840 841 842 842
791 800 796 792 795 798 805 815 816 819 822 809 800 802 799 796 784 759 753 757 755 754 754 752 752 752 752 751 750 751 751 751 752 752 754 755 755 757 757 758 759 760 762 763 764 766 767 769 770 771 773 774 776 777 779 780 781 782 782 783 785 786 787 788 789 792 794 796 797 799 800 802 803 804 806 808 810 812 813 815 816 817 819 821 823 825 827 830 831 833 834 835 837 838 839 840 841
781 787 783 787 802 806 806 812 814 818 820 806 795 795 792 790 780 760 755 757 753 750 751 751 751 750 750 749 749 750 749 750 751 751 753 754 754 756 756 757 758 759 761 761 763 764 765 767 768 769 770 771 773 775 776 777 777 778 779 780 782 784 785 786 788 790 792 793 794 795 797 799 800 802 804 806 808 810 812 813 814 815 816 819 821 823 825 827 829 831 832 833 834 835 837 838 839
778 781 783 783 791 797 797 798 799 806 812 805 795 791 782 772 765 759 755 750 746 746 747 749 749 747 747 747 748 748 748 749 750 751 752 753 754 755 755 757 757 758 759 759 760 762 762 764 765 766 767 768 770 771 772 773 774 775 777 778 780 782 784 785 787 788 789 790 791 792 794 796 798 800 802 804 806 807 809 810 812 813 814 816 819 821 823 825 827 829 830 831 832 833 835 836 837
783 786 789 787 787 790 790 790 790 796 804 804 798 792 775 754 747 749 747 743 742 743 744 745 745 744 745 746 746 748 748 749 750 750 752 753 754 754 755 755 756 756 757 757 758 759 760 761 762 763 764 765 767 768 769 771 772 773 775 776 778 779 781 783 784 785 786 787 789 790 791 793 795 797 799 801 803 805 806 807 809 810 812 814 816 818 821 822 825 827 828 829 830 831 834 835 836
776 780 781 783 786 789 796 798 790 788 795 795 796 794 772 744 737 739 739 739 739 739 741 742 742 743 744 745 746 748 748 749 750 750 751 753 753 754 754 754 754 754 755 755 756 757 757 758 759 761 762 763 765 766 768 769 770 772 773 774 776 777 779 780 781 783 784 785 786 788 789 791 793 794 796 798 800 802 803 805 806 807 809 812 814 816 818 819 821 824 826 827 829 830 832 834 834